Regional Weather Roundup
Issued by NWS

Home | Current Version | Previous Version | Text Only | Print | Product List | Glossary Off
Versions: 1 2 3 4 5 6 7 8 9 10 11 12 13 14 15 16 17 18 19 20 21 22 23 24 25 26 27 28 29 30 31 32 33 34 35 36 37 38 39 40 41 42 43 44 45 46 47 48 49 50

000
ASUS43 KTOP 300059
RWRKS

WEATHER ROUNDUP FOR KANSAS
NATIONAL WEATHER SERVICE GOODLAND KS
800 PM CDT THU SEP 29 2016

NOTE:  "FAIR" INDICATES FEW OR NO CLOUDS BELOW 12,000 FEET WITH NO
SIGNIFICANT WEATHER AND/OR OBSTRUCTIONS TO VISIBILITY.

KSZ001>006-013>018-027>032-041>047-300200-
NORTHWEST KANSAS

CITY           SKY/WX    TMP DP  RH WIND       PRES   REMARKS
GOODLAND       CLEAR     63  41  44 SE9       30.28S
HAYS           CLEAR     59  39  47 E8        30.32S
HILL CITY      CLEAR     56  46  69 E6        30.32S
RUSSELL        CLEAR     59  47  64 E6        30.31S
$$

KSZ061>065-074>080-084>089-300200-
SOUTHWEST KANSAS

CITY           SKY/WX    TMP DP  RH WIND       PRES   REMARKS
DODGE CITY     PTCLDY    58  40  51 SE7       30.31S
ELKHART          N/A     65  43  45 SE9         N/A
GARDEN CITY    PTCLDY    63  40  42 SE9       30.29F
GREAT BEND     CLEAR     63  43  48 E5        30.30F
LIBERAL        CLEAR     66  37  34 E10       30.31S
$$

KSZ066>073-081>083-090>101-300200-
SOUTHEAST KANSAS

CITY           SKY/WX    TMP DP  RH WIND       PRES   REMARKS
CHANUTE        CLEAR     59  50  72 N3        30.28S
COFFEYVILLE    CLEAR     62  48  60 N6        30.27S
HUTCHINSON     CLEAR     53  50  89 NE3       30.31S
MEDICINE LODGE   N/A     62  49  62 E5        30.30S
NEWTON         CLEAR     60  51  72 NE5       30.31S
PARSONS        CLEAR     56  50  80 CALM      30.28S
WICHITA INTL   PTCLDY    65  49  56 N7        30.29S
WICHITA JABRA  CLEAR     61  51  70 N3        30.29F
WINFIELD       CLEAR     61  52  72 N6        30.29F
$$

KSZ007>012-019>026-033>040-048>060-102>105-300200-
NORTHEAST KANSAS

CITY           SKY/WX    TMP DP  RH WIND       PRES   REMARKS
CONCORDIA      CLEAR     61  49  64 CALM      30.32S
EMPORIA        CLEAR     59  52  77 CALM      30.30R
LAWRENCE       CLEAR     58  53  84 NW5       30.29S
MANHATTAN      CLEAR     59  51  75 CALM      30.30S
OLATHE IND     CLEAR     57  49  74 N7        30.29S
OLATHE EXE     CLEAR     64  47  53 N5        30.28S
SALINA         CLEAR     66  49  54 E3        30.31F
TOPEKA BILLARD CLEAR     58  52  80 CALM      30.29S
TOPEKA FORBES  CLEAR     59  50  72 N5        30.29S
$$




USA.gov is the U.S. government's official web portal to all federal, state and local government web resources and services.